Precipitable_Water
1.40 1.46 1.51 1.48 1.46 1.42 1.43 1.44 1.48 1.47 1.46 1.43 1.47 1.47 1.40 1.43 1.50 1.45 1.47 1.51 1.45 1.42 1.40 1.45 1.54 1.59 1.57 1.59 1.65 1.57 1.65 1.63 1.58
1.39 1.49 1.49 1.46 1.52 1.45 1.46 1.45 1.46 1.47 1.44 1.45 1.38 1.44 1.47 1.42 1.46 1.46 1.47 1.55 1.66 1.51 1.53 1.62 1.65 1.68 1.71 1.76 1.70 1.70 1.72 1.73 1.70
1.39 1.54 1.53 1.52 1.56 1.42 1.41 1.49 1.50 1.55 1.54 1.46 1.42 1.35 1.41 1.43 1.42 1.46 1.43 1.56 1.48 1.57 1.63 1.75 1.76 1.77 1.82 1.78 1.77 1.79 1.83 1.82 1.85
1.40 1.52 1.54 1.47 1.45 1.52 1.47 1.49 1.56 1.54 1.58 1.54 1.51 1.42 1.34 1.35 1.42 1.46 1.48 1.42 1.54 1.53 1.65 1.69 1.82 1.93 1.80 1.77 1.68 1.81 1.80 1.76 1.80
1.30 1.50 1.59 1.66 1.57 1.58 1.53 1.52 1.54 1.55 1.58 1.67 1.58 1.54 1.42 1.34 1.32 1.43 1.51 1.43 1.51 1.70 1.67 1.73 1.87 1.92 1.83 1.78 1.81 1.77 1.67 1.65 1.66
1.21 1.41 1.48 1.57 1.53 1.63 1.61 1.62 1.65 1.66 1.58 1.72 1.58 1.65 1.55 1.43 1.36 1.36 1.37 1.48 1.56 1.64 1.73 1.87 1.90 1.96 1.88 1.88 1.87 1.86 1.92 1.88 1.79
1.27 1.45 1.44 1.53 1.62 1.66 1.71 1.72 1.73 1.66 1.64 1.71 1.71 1.64 1.63 1.53 1.38 1.31 1.35 1.38 1.49 1.60 1.71 1.78 1.84 1.88 1.88 1.89 1.91 1.92 1.85 1.70 1.55
1.19 1.29 1.39 1.48 1.61 1.67 1.66 1.80 1.76 1.70 1.79 1.83 1.73 1.88 1.66 1.61 1.60 1.39 1.38 1.41 1.43 1.53 1.63 1.68 1.76 1.75 1.78 1.82 1.75 1.70 1.59 1.60 1.66
1.11 1.27 1.37 1.46 1.63 1.72 1.75 1.81 1.79 1.86 1.89 1.87 1.90 1.90 1.77 1.74 1.63 1.48 1.43 1.41 1.40 1.45 1.51 1.57 1.62 1.60 1.54 1.50 1.53 1.68 1.82 1.89 1.93
1.00 1.08 1.25 1.36 1.55 1.76 1.82 1.83 1.94 1.81 1.96 1.96 1.99 1.96 2.05 2.04 1.88 1.63 1.54 1.46 1.38 1.34 1.39 1.53 1.49 1.48 1.55 1.62 1.76 1.87 1.93 1.95 1.94
0.88 1.09 1.20 1.40 1.47 1.53 1.52 1.62 1.79 1.87 1.98 1.97 1.96 1.97 2.00 2.07 1.99 1.91 1.85 1.80 1.56 1.45 1.43 1.50 1.62 1.70 1.74 1.81 1.90 1.99 2.02 1.96 1.96
0.88 1.02 1.27 1.40 1.55 1.58 1.59 1.55 1.62 1.74 1.83 1.87 1.85 1.88 1.87 1.98 2.12 1.94 1.91 1.96 1.85 1.71 1.67 1.70 1.73 1.87 2.00 1.97 1.94 2.00 1.96 2.01 2.00
0.93 1.01 1.18 1.38 1.53 1.56 1.56 1.51 1.52 1.54 1.67 1.71 1.72 1.84 1.80 1.94 1.96 1.87 2.04 2.16 2.08 2.03 2.03 2.01 2.03 1.98 2.01 1.94 1.88 1.95 2.02 2.08 2.09
0.93 1.08 1.20 1.35 1.45 1.52 1.63 1.66 1.61 1.51 1.53 1.58 1.75 1.94 2.01 1.99 2.00 1.97 2.05 2.01 2.15 2.15 2.09 2.10 2.04 1.97 1.96 1.93 1.93 1.92 1.94 1.95 1.91
0.85 0.94 1.11 1.31 1.35 1.40 1.52 1.59 1.58 1.49 1.48 1.67 1.68 1.77 1.89 2.04 2.02 2.01 2.06 2.00 2.04 2.04 2.03 1.97 1.91 1.85 1.76 1.74 1.76 1.78 1.78 1.79 1.80
0.82 0.89 0.98 1.18 1.27 1.37 1.48 1.58 1.56 1.48 1.54 1.66 1.69 1.76 1.73 1.70 1.90 1.87 1.86 1.84 1.87 1.78 1.81 1.72 1.68 1.69 1.68 1.60 1.61 1.63 1.65 1.64 1.66
0.84 0.89 1.00 1.06 1.09 1.23 1.31 1.49 1.58 1.60 1.68 1.76 1.79 1.74 1.78 1.66 1.64 1.68 1.77 1.77 1.79 1.76 1.73 1.68 1.63 1.56 1.49 1.49 1.52 1.50 1.52 1.50 1.48
0.93 0.89 0.91 1.03 1.08 1.14 1.19 1.34 1.43 1.53 1.62 1.67 1.66 1.68 1.71 1.68 1.68 1.67 1.64 1.62 1.59 1.60 1.65 1.64 1.57 1.55 1.51 1.44 1.41 1.43 1.44 1.41 1.40
0.94 1.01 1.00 0.97 1.05 1.10 1.16 1.25 1.30 1.37 1.46 1.51 1.51 1.46 1.50 1.49 1.51 1.50 1.53 1.48 1.47 1.54 1.56 1.57 1.55 1.53 1.50 1.46 1.45 1.41 1.38 1.37 1.33
0.92 1.02 1.07 1.00 0.99 1.06 1.10 1.16 1.22 1.33 1.34 1.38 1.39 1.39 1.39 1.40 1.42 1.43 1.44 1.43 1.39 1.36 1.43 1.51 1.49 1.44 1.38 1.35 1.24 1.16 1.10 1.07 1.03
Wind_Speed
15 24 23 23 24 23 21 19 19 17 16 16 17 16 15 14 14 14 13 12 12 11 11 10 9 9 9 8 6 6 5 5 5
10 21 25 25 23 23 24 22 22 20 18 17 17 18 17 17 16 15 14 14 13 12 11 10 10 10 9 9 7 7 6 6 6
8 14 26 25 26 25 25 25 24 23 21 19 17 18 18 19 18 17 16 14 15 14 12 11 10 10 10 10 9 8 7 7 6
8 13 22 24 24 24 28 27 26 26 24 21 19 18 19 19 20 19 18 17 16 15 14 13 12 12 11 11 10 9 8 8 7
11 12 18 22 25 24 26 27 27 27 27 24 22 20 19 20 20 21 21 20 19 17 16 15 14 12 12 11 10 10 9 9 9
8 12 16 20 24 25 25 27 28 28 28 28 25 22 21 21 21 22 23 22 21 20 18 17 16 15 14 13 12 12 11 11 11
6 10 11 15 20 28 27 27 26 27 29 28 27 25 23 22 22 23 24 24 24 22 21 20 18 17 16 15 14 13 13 13 13
6 8 9 11 16 23 28 24 26 27 27 28 29 29 26 25 23 23 25 25 25 24 23 22 21 19 18 17 16 16 15 14 14
7 9 9 9 12 18 25 26 25 27 27 27 29 31 29 27 25 24 25 25 25 26 25 23 22 21 20 19 18 17 16 16 17
8 9 9 9 8 13 21 27 27 27 28 29 30 30 31 29 26 26 27 27 27 27 26 24 24 23 21 20 19 18 18 19 19
9 10 9 10 10 10 9 13 24 28 31 30 34 32 32 33 32 28 29 30 29 28 27 26 24 23 22 21 21 20 21 22 22
12 10 10 10 13 13 11 10 9 14 20 25 27 30 34 35 35 36 31 31 32 30 29 27 25 23 22 22 22 22 23 23 22
10 11 10 11 12 15 14 13 11 10 11 13 19 25 28 32 32 36 35 31 31 29 28 27 25 23 22 22 22 22 22 22 24
10 9 10 12 12 12 14 16 15 12 12 10 9 14 18 22 25 27 30 29 33 30 28 26 25 23 21 21 21 21 21 21 21
11 10 9 11 12 13 12 13 14 13 12 12 8 5 9 12 19 21 24 29 27 23 22 20 19 20 19 18 16 16 16 15 15
14 14 13 11 12 13 14 13 13 13 13 13 12 9 7 8 13 13 15 16 21 23 20 17 18 18 16 16 15 13 11 10 10
16 16 15 14 12 13 13 14 14 13 11 10 12 11 10 6 7 9 11 13 13 14 14 15 14 13 13 12 12 11 11 11 11
16 17 17 15 15 14 14 14 15 15 14 14 12 11 11 10 9 9 10 10 11 11 12 12 13 13 13 13 13 13 13 13 13
17 17 18 16 15 15 15 14 14 15 14 15 14 13 13 14 13 11 11 11 11 10 11 13 13 14 15 14 13 13 13 13 12
20 18 17 18 16 16 16 16 15 15 15 16 16 16 15 15 16 15 13 14 13 13 12 12 12 13 12 12 12 12 12 12 12
Wind_Direction
223 213 216 215 213 212 209 206 205 203 203 203 205 207 204 203 202 200 200 201 200 201 200 203 208 209 211 214 220 224 232 244 250
234 221 217 215 213 214 212 211 209 208 207 209 209 210 209 207 206 205 207 209 206 206 208 209 212 210 213 218 224 229 237 244 253
240 228 214 213 215 216 215 213 213 213 212 212 213 213 214 212 212 210 211 211 209 210 212 214 213 212 222 224 228 233 241 247 251
241 223 212 215 218 220 218 218 216 216 215 214 215 216 216 216 216 216 216 214 215 217 219 219 221 227 227 224 235 233 240 244 252
241 226 220 219 220 223 220 218 217 217 217 218 219 219 218 219 220 220 220 220 221 222 224 226 227 226 227 230 232 236 240 244 249
238 231 223 223 226 223 222 219 220 219 220 223 222 222 222 222 224 224 224 224 225 226 227 226 226 229 232 235 238 240 248 249 254
236 228 231 237 235 221 219 221 222 222 222 221 221 223 225 226 227 227 226 226 227 227 227 227 229 234 238 239 242 247 253 256 261
259 238 244 244 229 218 217 220 220 220 223 226 225 223 226 229 231 230 226 226 226 227 228 230 233 236 238 242 247 250 253 257 262
257 255 255 256 236 222 216 215 220 223 226 227 228 224 227 229 232 230 229 228 228 228 229 231 233 237 240 244 247 250 254 259 264
266 265 262 245 237 219 224 226 228 230 232 230 232 227 229 231 233 233 232 230 229 230 229 232 235 238 240 243 248 253 256 263 268
283 270 262 244 230 218 227 228 233 235 235 236 242 229 232 233 234 235 234 232 230 230 230 232 235 236 240 244 250 256 262 267 269
278 274 257 247 230 227 232 237 229 232 240 235 236 237 237 242 233 237 236 234 230 229 231 231 233 236 242 248 254 261 266 268 268
285 275 259 248 237 235 237 239 239 239 241 244 248 244 245 240 239 239 232 232 230 228 228 230 234 238 246 253 258 263 264 266 268
283 278 266 251 245 245 246 243 241 241 241 251 262 247 240 229 233 229 231 233 233 227 231 236 235 239 249 254 258 264 266 267 267
268 269 265 252 246 244 248 239 234 242 244 241 244 264 236 229 222 230 227 229 239 220 231 223 230 239 247 250 258 259 261 264 265
264 260 255 255 247 240 240 238 238 240 242 235 235 239 225 233 224 224 224 221 224 219 232 233 232 236 241 245 251 255 258 261 260
262 253 250 246 246 241 236 236 234 235 235 229 225 223 220 216 198 192 196 203 207 218 222 226 226 230 236 242 243 249 254 259 263
261 250 244 244 241 237 236 236 234 233 231 228 224 221 213 216 203 194 196 204 214 217 219 225 229 237 241 246 250 255 260 262 264
257 248 239 238 237 234 234 233 233 229 227 225 223 221 217 218 221 221 218 225 228 228 233 239 243 245 251 253 252 255 258 259 264
251 242 237 232 233 233 231 232 231 231 231 230 229 227 226 226 229 232 234 235 237 238 241 243 248 248 246 247 249 254 257 260 267